Toowoomba, Queensland

9:02 PM AEST on June 02, 2015 (GMT +1000)
Newtown | | Change Station
CLOSE
Current Station
Personal Weather Station
Location: Toowoomba, QUEENSLAND
Elevation: 1919 ft
Nearby Weather Stations

Elev 1919 ft 27.54 °S, 151.94 °E | Updated 12 seconds ago

Clear
Clear
45.7 °F
Feels Like 46 °F
N
0.0
Wind Variable Wind from NNE
Gusts 0.6 mph

Today
High -- | Low -- °F
--% Chance of Precip.
Yesterday
High -- | Low -- °F
Precip. -- in
6:34 AM 5:05 PM
Full, 100% visible
Pressure 30.18 in
Visibility 6.2 miles
Clouds
Windchill 46 °F
Dew Point 29 °F
Humidity 51%
Rainfall 0.00 in
Snow Depth Not available.
UV Not available.
Pollen Not available.
Air Quality Not available.
Flu Activity Not available.
METAR YBOK 021000Z AUTO 00000KT 9999 // NCD 06/M01 Q1022

More Conditions Fewer Conditions

Pressure 30.18 in
Visibility 6.2 miles
Clouds
Windchill 46 °F
Dew Point 29 °F
Humidity 51%
Rainfall 0.00 in
Snow Depth Not available.
UV Not available.
Pollen Not available.
Air Quality Not available.
Flu Activity Not available.
METAR YBOK 021000Z AUTO 00000KT 9999 // NCD 06/M01 Q1022

More Conditions Fewer Conditions

10-Day Weather Forecast

Almanac

Astronomy

Jun. 02, 2015 Rise Set
Actual Time
Civil Twilight
Nautical Twilight
Astronomical Twilight
Moon
Length of Visible Light
Length of Day
Tomorrow will be .
, % of the Moon is Illuminated

Today's Extremes

Country Highs Country Lows

Community

WunderPhotos

Upload Photos

1,825,906 photos uploaded!

WunderBlogs® & News

Nearby

Air Quality

  Air Quality AQ Index Pollutant
Not available.

Snow Depth

Station Depth Elevation

Earthquake Activity

City Distance Mag. Time & Date
Minimum magnitude displayed is 2.5.

Coastal Water Temperatures

Place Temperature

Stations

Nearby Weather Stations

Station Location Temp. Windchill Dew Point Humidity Wind Precip. Elev Updated Type